Tracking 31027 objects as of 19-Jul-2025
HD Live streaming from Space Station
objects crossing your sky now

STARLINK-6145

Track STARLINK-6145 now!
10-day predictions
STARLINK-6145 is classified as:


NORAD ID: 56389
Int'l Code: 2023-061R
Perigee: 565.5 km
Apogee: 566.9 km
Inclination: 43.0 °
Period: 95.8 minutes
Semi major axis: 6937 km
RCS: Unknown
Launch date: May 4, 2023
Source: United States (US)
Launch site: AIR FORCE EASTERN TEST RANGE (AFETR)
Your satellite tracking list
FLOCK 3P 17
Track 1 satellite(s)




NASA's NSSDC Master Catalog

Two Line Element Set (TLE):
1 56389U 23061R   25199.79360012  .00000395  00000-0  44296-4 0  9993
2 56389  43.0014  28.1229 0000984 261.2212  98.8519 15.02533518121867
Source of the keplerian elements: AFSPC